N0OQA Weather Reports


Display with metric or nautical units.
time (UTC)temp
F
wind
direction
speed
MPH
gust
MPH
rain 1hr
in
rain 24hr
in
rain mn
in
humidity
%
barometer
mb
20240223032053 35 250 4.0 5.0 0.00 0.00 0.00 84 1010.8
20240223020547 37 239 4.0 6.0 0.00 0.00 0.00 76 1010.8
20240223015046 37 277 5.0 6.0 0.00 0.00 0.00 75 1011.0
20240223013545 38 273 5.0 6.0 0.00 0.00 0.00 75 1011.0
20240223012045 38 269 5.0 6.0 0.00 0.00 0.00 74 1011.1
20240223004543 39 311 9.0 15.0 0.00 0.00 0.00 73 1010.9
20240223002041 41 294 9.0 11.0 0.00 0.00 0.00 73 1010.5
20240222235540 42 293 10.0 13.0 0.00 0.00 0.00 68 1010.4
20240222234539 43 266 11.0 14.0 0.00 0.00 0.00 68 1010.4
20240222233538 43 284 10.0 13.0 0.00 0.00 0.00 67 1010.2
20240222232038 44 277 11.0 16.0 0.00 0.00 0.00 67 1010.1
20240222231537 44 281 13.0 17.0 0.00 0.00 0.00 67 1010.1
20240222230537 44 295 11.0 13.0 0.00 0.00 0.00 68 1010.0
20240222223533 45 297 11.0 16.0 0.00 0.00 0.00 70 1009.7
20240222223033 45 276 14.0 18.0 0.00 0.00 0.00 70 1009.7
20240222220530 45 228 8.0 11.0 0.00 0.00 0.00 72 1009.6
20240222214529 46 233 9.0 15.0 0.00 0.00 0.00 71 1009.5
20240222212028 48 222 10.0 13.0 0.00 0.00 0.00 65 1009.3
20240222211027 48 300 11.0 17.0 0.00 0.00 0.00 63 1009.2
20240222200521 48 302 14.0 19.0 0.00 0.00 0.00 60 1009.4
20240222195519 48 315 13.0 21.0 0.00 0.00 0.00 60 1009.5
20240222191514 48 311 14.0 23.0 0.00 0.00 0.00 60 1009.9
20240222190514 48 338 13.0 20.0 0.00 0.00 0.00 60 1010.0
20240222185013 48 314 11.0 16.0 0.00 0.00 0.00 60 1010.0
20240222180509 47 293 8.0 11.0 0.00 0.00 0.00 64 1010.2
20240222175508 46 290 9.0 15.0 0.00 0.00 0.00 65 1010.2
20240222175008 46 318 15.0 21.0 0.00 0.00 0.00 65 1010.2
20240222171506 44 314 16.0 22.0 0.00 0.00 0.00 66 1010.4
20240222161002 42 277 12.0 17.0 0.00 0.00 0.00 79 1010.3
20240222150959 37 318 11.0 14.0 0.00 0.00 0.00 94 1010.1
20240222145957 36 287 11.0 15.0 0.00 0.00 0.00 96 1010.1
20240222130947 29 0 0.0 0.0 0.00 0.00 0.00 100 1009.6
20240222125946 29 0 0.0 0.0 0.00 0.00 0.00 100 1009.7
20240222120941 26 0 0.0 0.0 0.00 0.00 0.00 100 1009.7
20240222110935 26 0 0.0 0.0 0.00 0.00 0.00 100 1009.7
20240222104434 27 0 0.0 0.0 0.00 0.00 0.00 99 1010.2
20240222103933 27 0 0.0 0.0 0.00 0.00 0.00 99 1010.2
20240222102933 27 0 0.0 0.0 0.00 0.00 0.00 99 1010.4
20240222101432 27 0 0.0 0.0 0.00 0.00 0.00 99 1010.5
20240222091426 28 0 0.0 0.0 0.00 0.00 0.00 98 1010.9
20240222082422 28 0 0.0 0.0 0.00 0.00 0.00 98 1010.9
20240222081922 28 0 0.0 0.0 0.00 0.00 0.00 98 1011.0
20240222074919 28 0 0.0 0.0 0.00 0.00 0.00 97 1011.2
20240222071408 28 0 0.0 0.0 0.00 0.00 0.00 96 1011.5
20240222070408 28 0 0.0 0.0 0.00 0.00 0.00 96 1011.6
20240222065907 28 0 0.0 0.0 0.00 0.00 0.00 96 1011.6
20240222065404 28 0 0.0 0.0 0.00 0.00 0.00 96 1011.6
20240222064404 28 0 0.0 0.0 0.00 0.00 0.00 96 1011.7
20240222063403 28 0 0.0 0.0 0.00 0.00 0.00 95 1011.7
20240222062402 28 0 0.0 0.0 0.00 0.00 0.00 95 1011.5
20240222055355 29 0 0.0 0.0 0.00 0.00 0.00 95 1012.0
20240222051853 29 0 0.0 0.0 0.00 0.00 0.00 93 1012.0
20240222050852 29 0 0.0 0.0 0.00 0.00 0.00 93 1012.0
20240222045852 30 0 0.0 0.0 0.00 0.00 0.00 93 1012.1
20240222044351 30 0 0.0 0.0 0.00 0.00 0.00 92 1012.2
20240222043851 30 0 0.0 0.0 0.00 0.00 0.00 92 1012.3
20240222040849 30 0 0.0 0.0 0.00 0.00 0.00 91 1012.4